Location: Unspecified
(49.9820°N, 20.4363°E)
Time: 03:20:06
(UTC+01:00)

ISS - Visible Passes

Search period start: 11 December 2017 00:00
Search period end: 21 December 2017 00:00
Orbit: 402 x 407 km, 51.6° (Epoch: 10 December)

Date Brightness Start Highest point End Pass type
(mag) Time Alt. Az. Time Alt. Az. Time Alt. Az.
11 Dec -3.8 16:36:49 10° WNW 16:40:06 72° N 16:43:06 12° E visible
11 Dec -2.2 18:13:23 10° W 18:15:46 34° WSW 18:15:46 34° WSW visible
12 Dec -3.4 17:21:03 10° WNW 17:24:19 60° SSW 17:25:56 26° SE visible
12 Dec -0.3 18:58:26 10° WSW 18:58:37 11° WSW 18:58:37 11° WSW visible
13 Dec -3.8 16:28:44 10° WNW 16:32:03 84° SSW 16:35:20 10° ESE visible
13 Dec -1.7 18:05:34 10° W 18:08:13 22° SW 18:08:58 21° SSW visible
14 Dec -2.2 17:13:02 10° W 17:16:05 34° SSW 17:19:05 10° SE visible
15 Dec -2.9 16:20:38 10° WNW 16:23:52 52° SSW 16:27:04 10° SE visible
15 Dec -0.6 17:58:26 10° WSW 17:59:45 12° SW 18:01:04 10° SSW visible
16 Dec -1.0 17:05:15 10° W 17:07:41 19° SW 17:10:05 10° S visible
17 Dec -1.6 16:12:36 10° W 16:15:31 30° SSW 16:18:26 10° SSE visible
